Location: Fontevrault
(47.1823°N, 0.0493°E)
Time: 08:02:15
(UTC+00:00)

Cosmos 1727 Rocket - Pass Details

Date: 16 June 2021
Orbit: 960 x 997 km, 82.9° (Epoch: 01 August)

Event Time Altitude Azimuth Distance (km) Brightness Sun altitude
Rises 20:26:14 0° 167° (SSE) 3,697 6.5 -4.5°
Reaches altitude 10° 20:28:50 10° 161° (SSE) 2,749 5.8 -4.9°
Maximum altitude 20:34:49 47° 90° (E) 1,293 4.4 -5.6°
Drops below altitude 10° 20:40:46 10° 19° (NNE) 2,745 6.7 -6.3°
Sets 20:43:22 0° 14° (NNE) 3,692 7.5 -6.6°
